軌道要素
Epoch 2012 Mar. 14.0 TT = JDT 2456000.5
T 2012 Mar. 12.65302 TT MPC
q 0.8021717 (2000.0) P Q
z -0.0033771 Peri. 62.67885 +0.53383179 +0.80421686
+/-0.0007177 Node 118.00106 +0.63279374 -0.58488798
e 1.0027090 Incl. 162.78833 +0.56088832 -0.10555234
From 211 observations 2012 Feb. 11-27, mean residual 0".6.
|